Satellite: RS-30
Catalog number: 32953
Epoch time:      11307.39315240
Element set:     223
Inclination:      082.5000 deg
RA of node:       076.1684 deg
Eccentricity:    0.0019724
Arg of perigee:   084.1626 deg
Mean anomaly:     276.1710 deg
Mean motion:   12.43016629 rev/day
Decay rate:        1.0e-07 rev/day^2
Epoch rev:           15638
Checksum:              261

Satellite: TACSAT-3
Catalog number: 35001
Epoch time:      11307.39507707
Element set:     748
Inclination:      040.4531 deg
RA of node:       043.9542 deg
Eccentricity:    0.0014992
Arg of perigee:   164.4926 deg
Mean anomaly:     195.6373 deg
Mean motion:   15.56935393 rev/day
Decay rate:     6.9152e-04 rev/day^2
Epoch rev:           13871
Checksum:              316

Satellite: PHARMSAT
Catalog number: 35002
Epoch time:      11307.38382810
Element set:     694
Inclination:      040.4693 deg
RA of node:       043.2023 deg
Eccentricity:    0.0016652
Arg of perigee:   177.6628 deg
Mean anomaly:     182.4320 deg
Mean motion:   15.54734080 rev/day
Decay rate:     5.0666e-04 rev/day^2
Epoch rev:           13872
Checksum:              279

Satellite: HAWKSAT1
Catalog number: 35003
Epoch time:      11276.79285837
Element set:     811
Inclination:      040.4398 deg
RA of node:       174.3672 deg
Eccentricity:    0.0011414
Arg of perigee:   274.3918 deg
Mean anomaly:     085.3844 deg
Mean motion:   16.13812532 rev/day
Decay rate:   2.274821e-02 rev/day^2
Epoch rev:           13457
Checksum:              306

Satellite: CP6
Catalog number: 35004
Epoch time:      11247.64656856
Element set:     784
Inclination:      040.4403 deg
RA of node:       342.9642 deg
Eccentricity:    0.0002956
Arg of perigee:   038.0069 deg
Mean anomaly:     322.2231 deg
Mean motion:   16.41039951 rev/day
Decay rate:  1.6152067e-01 rev/day^2
Epoch rev:           13013
Checksum:              285

Satellite: METEOR-M
Catalog number: 35865
Epoch time:      11307.20474098
Element set:     864
Inclination:      098.6887 deg
RA of node:       000.4064 deg
Eccentricity:    0.0002800
Arg of perigee:   006.9218 deg
Mean anomaly:     353.1993 deg
Mean motion:   14.21844423 rev/day
Decay rate:        1.9e-07 rev/day^2
Epoch rev:           11034
Checksum:              283

Satellite: RS-38
Catalog number: 35869
Epoch time:      11307.18732354
Element set:     846
Inclination:      098.6857 deg
RA of node:       000.4155 deg
Eccentricity:    0.0004779
Arg of perigee:   359.3966 deg
Mean anomaly:     000.7210 deg
Mean motion:   14.22030233 rev/day
Decay rate:        9.2e-07 rev/day^2
Epoch rev:           11035
Checksum:              293

Satellite: ARISSAT1
Catalog number: 37772
Epoch time:      11307.40947468
Element set:     279
Inclination:      051.6351 deg
RA of node:       177.1363 deg
Eccentricity:    0.0004615
Arg of perigee:   057.2722 deg
Mean anomaly:     109.6470 deg
Mean motion:   15.72739585 rev/day
Decay rate:    1.58859e-03 rev/day^2
Epoch rev:            1426
Checksum:              323

Satellite: SRMSAT
Catalog number: 37839
Epoch time:      11306.33953534
Element set:      20
Inclination:      019.9625 deg
RA of node:       298.5106 deg
Eccentricity:    0.0018972
Arg of perigee:   233.9594 deg
Mean anomaly:     125.9041 deg
Mean motion:   14.11980734 rev/day
Decay rate:       6.19e-06 rev/day^2
Epoch rev:             300
Checksum:              291

Satellite: JUGNU
Catalog number: 37841
Epoch time:      11306.29726232
Element set:    0019
Inclination:      019.9693 deg
RA of node:       299.1858 deg
Eccentricity:    0.0011621
Arg of perigee:   210.8240 deg
Mean anomaly:     149.1517 deg
Mean motion:   14.10079147 rev/day
Decay rate:       2.64e-06 rev/day^2
Epoch rev:           00299
Checksum:              287

/EX


_______________________________________________
Via the Keps mailing list courtesy of AMSAT-NA
http://amsat.org/mailman/listinfo/keps

--- ViaMAIL!/WC v1.60d
 * Origin: Chowdanet (401-724-4410) telnet://chowdanet.com  (1:323/120)